Flag for Micronesia Weather past 2 weeks in Colonia, Yap, Micronesia

Now
87 °F

More clouds than sun.


Feels Like: 99 °F
Forecast: 81 / 87 °F
Wind: 6 mph from North

Location: Yap Island

Current Time: Aug 3, 2015 at 10:42:42 AM

Latest Report: Aug 3, 2015 at 9:53 AM


Visibility: 12 mi

Pressure: 29.74 "Hg

Humidity: 75%

Dew point: 78 °F

Location of ColoniaLocation

Historic Weather in Colonia — Graph

°F

Colonia temperature yesterday

Maximum temperature yesterday: 86 °F (at 3:55 PM)
Minimum temperature yesterday: 76 °F (at 2:55 AM)
Average temperature yesterday: 83 °F

Past Weeks' High & Low Weather Summary

 TemperatureHumidityPressure
High89 °F (Jul 28, 3:50 PM)100% (Aug 2, 2:55 AM)29.95 "Hg (Aug 2, 2:55 AM)
Low75 °F (Jul 22, 7:50 AM)47% (Jul 20, 11:50 PM)29.71 "Hg (Aug 3, 4:50 AM)
Average82 °F83%29.84 "Hg
* Reported Jul 19 8:53 AM — Aug 3 8:55 AM, Colonia, Weather by CustomWeather, © 2015

Note: Actual official high and low records may vary slightly from our data, if they occured in-between our weather recording intervals... More about our weather records

Advertising

Colonia weather history for previous 24 hours

 ConditionsComfort  
Time TempWeatherWind HumidityBarometerVisibility
8:55 AM
Mon, Aug 3
85 °FMore clouds than sun.6 mph78%29.75 "Hg12 mi
6:52 AM83 °FMostly cloudy.7 mph83%29.72 "Hg12 mi
5:59 AM83 °FPassing clouds.6 mph80%29.71 "Hg12 mi
4:50 AM83 °FPassing clouds.6 mph78%29.71 "Hg12 mi
3:50 AM83 °FPassing clouds.7 mph81%29.71 "Hg12 mi
2:50 AM83 °FPartly cloudy.7 mph78%29.72 "Hg12 mi
1:55 AM83 °FPartly cloudy.5 mph82%29.74 "Hg12 mi
12:50 AM83 °FPartly cloudy.6 mph81%29.75 "Hg12 mi
11:50 PM
Sun, Aug 2
83 °FPartly cloudy.8 mph83%29.78 "Hg12 mi
10:52 PM83 °FPartly cloudy.8 mph81%29.79 "Hg12 mi
9:50 PM83 °FPartly cloudy.8 mph84%29.75 "Hg12 mi
8:52 PM83 °FPartly cloudy.6 mph79%29.78 "Hg12 mi
7:53 PM83 °FBroken clouds.5 mph81%29.77 "Hg12 mi
6:50 PM84 °FBroken clouds.6 mph79%29.75 "Hg12 mi
5:50 PM85 °FBroken clouds.6 mph76%29.74 "Hg12 mi
4:55 PM86 °FBroken clouds.6 mph75%29.73 "Hg12 mi
3:55 PM86 °FPartly sunny.6 mph74%29.74 "Hg12 mi
2:52 PM86 °FBroken clouds.7 mph77%29.76 "Hg12 mi
1:52 PM86 °FBroken clouds.6 mph79%29.77 "Hg12 mi
12:53 PM85 °FBroken clouds.6 mph73%29.79 "Hg12 mi
11:53 AM82 °FMore clouds than sun.6 mph86%29.80 "Hg12 mi
Weather by CustomWeather, © 2015

See weather overviewHow to use our weather pages